User: anonymous   Login
Location: Unspecified
(0.0000°N, 0.0000°E)
Time: 06:18:39
(UTC+00:00)
Language:

Picosat 6 - Orbit

View from above orbital plane
View from above orbital plane
View from above satellite
View from above satellite

Ground track
Ground track

The orbit data is extracted from the following two-line orbital elements,

1 26094U 00004M   18116.51492384 +.00000050 +00000-0 +32920-4 0  9993
2 26094 100.1829 225.9763 0034233 030.7001 329.6176 14.42423461956166
Epoch (UTC): 26 April 2018 12:21:29
Eccentricity: 0.0034233
inclination: 100.1829°
perigee height: 726 km
apogee height: 775 km
right ascension of ascending node: 225.9763°
argument of perigee: 30.7001°
revolutions per day: 14.42423461
mean anomaly at epoch: 329.6176°
orbit number at epoch: 95616

The dashed part of the orbit path shows where the satellite is in the earth's shadow,  

DLR